When you browse on this site, cookies collect data to enhance your experience and personalize the content and advertising you see.
Visit our Privacy Policy to learn more. By continuing to use the site, you agree to this use of cookies and data.
  • In Lithuania
  • List of Countries
  • For 7 days
  • Water Temperature
  • Satellite Maps
  • Weather Map
  • Weather Widgets
  • user-avatar
    Login

    Hourly Weather Norwich

    Today, 25 June, Tuesday

    Time Temperature Precipitation Wind Pressure Humidity
    00:00 +17°C° 0 mm 0 mps 761 mmHg 84%
    01:00 +19°C° 0 mm 1 mps 760 mmHg 84%
    02:00 +18°C° 0 mm 2 mps 760 mmHg 84%
    03:00 +18°C° 0 mm 2 mps 760 mmHg 84%
    04:00 +18°C° 0.9 mm 3 mps 760 mmHg 87%
    05:00 +18°C° 0.9 mm 4 mps 760 mmHg 91%
    06:00 +18°C° 0 mm 4 mps 760 mmHg 95%
    07:00 +17°C° 1.3 mm 5 mps 760 mmHg 94%
    08:00 +17°C° 1.3 mm 5 mps 760 mmHg 94%
    09:00 +17°C° 1.3 mm 6 mps 760 mmHg 93%
    10:00 +19°C° 0.2 mm 6 mps 760 mmHg 90%
    11:00 +20°C° 0.2 mm 6 mps 760 mmHg 87%
    12:00 +21°C° 0.2 mm 5 mps 761 mmHg 84%
    13:00 +20°C° 0 mm 5 mps 761 mmHg 85%
    14:00 +20°C° 0 mm 5 mps 761 mmHg 85%
    15:00 +20°C° 0 mm 5 mps 761 mmHg 86%
    16:00 +19°C° 0 mm 5 mps 762 mmHg 87%
    17:00 +19°C° 0 mm 5 mps 762 mmHg 89%
    18:00 +18°C° 0 mm 4 mps 762 mmHg 90%
    19:00 +18°C° 0 mm 4 mps 763 mmHg 92%
    20:00 +17°C° 0 mm 4 mps 763 mmHg 94%
    21:00 +15°C° 0 mm 4 mps 764 mmHg 95%
    22:00 +15°C° 0 mm 4 mps 764 mmHg 95%
    23:00 +15°C° 0 mm 4 mps 765 mmHg 94%

    Tomorrow, 26 June, Wednesday

    Time Temperature Precipitation Wind Pressure Humidity
    00:00 +15°C° 0 mm 5 mps 765 mmHg 93%
    01:00 +15°C° 0 mm 4 mps 765 mmHg 93%
    02:00 +15°C° 0 mm 4 mps 765 mmHg 92%
    03:00 +15°C° 0 mm 4 mps 766 mmHg 92%
    04:00 +15°C° 0 mm 4 mps 766 mmHg 92%
    05:00 +15°C° 0 mm 4 mps 767 mmHg 92%
    06:00 +15°C° 0 mm 4 mps 767 mmHg 92%
    07:00 +15°C° 0 mm 5 mps 767 mmHg 90%
    08:00 +15°C° 0 mm 5 mps 768 mmHg 88%
    09:00 +16°C° 0 mm 6 mps 768 mmHg 86%
    10:00 +15°C° 0 mm 6 mps 768 mmHg 86%
    11:00 +15°C° 0 mm 6 mps 769 mmHg 85%
    12:00 +15°C° 0 mm 6 mps 769 mmHg 84%
    13:00 +15°C° 0 mm 6 mps 769 mmHg 84%
    14:00 +15°C° 0 mm 6 mps 769 mmHg 83%
    15:00 +15°C° 0 mm 6 mps 769 mmHg 83%
    16:00 +15°C° 0 mm 6 mps 769 mmHg 83%
    17:00 +14°C° 0 mm 6 mps 769 mmHg 84%
    18:00 +14°C° 0 mm 6 mps 769 mmHg 84%
    19:00 +13°C° 0 mm 5 mps 769 mmHg 86%
    20:00 +13°C° 0 mm 5 mps 769 mmHg 87%
    21:00 +12°C° 0 mm 5 mps 770 mmHg 89%
    22:00 +12°C° 0 mm 4 mps 770 mmHg 90%
    23:00 +11°C° 0 mm 4 mps 770 mmHg 92%

    Day after tomorrow, 27 June, Thursday

    Time Temperature Precipitation Wind Pressure Humidity
    00:00 +11°C° 0 mm 4 mps 770 mmHg 93%
    01:00 +11°C° 0 mm 4 mps 770 mmHg 93%
    02:00 +10°C° 0 mm 4 mps 770 mmHg 94%
    03:00 +10°C° 0 mm 4 mps 770 mmHg 94%
    04:00 +11°C° 0 mm 4 mps 770 mmHg 90%
    05:00 +12°C° 0 mm 4 mps 770 mmHg 87%
    06:00 +13°C° 0 mm 5 mps 770 mmHg 83%
    07:00 +14°C° 0 mm 5 mps 770 mmHg 81%
    08:00 +15°C° 0 mm 5 mps 770 mmHg 80%
    09:00 +16°C° 0 mm 5 mps 770 mmHg 78%
    10:00 +16°C° 0 mm 5 mps 770 mmHg 77%
    11:00 +17°C° 0 mm 5 mps 770 mmHg 75%
    12:00 +17°C° 0 mm 5 mps 770 mmHg 74%
    13:00 +17°C° 0 mm 5 mps 770 mmHg 75%
    14:00 +17°C° 0 mm 5 mps 770 mmHg 75%
    15:00 +17°C° 0 mm 5 mps 770 mmHg 76%
    16:00 +16°C° 0 mm 5 mps 770 mmHg 79%
    17:00 +15°C° 0 mm 5 mps 769 mmHg 81%
    18:00 +15°C° 0 mm 5 mps 769 mmHg 84%
    19:00 +13°C° 0 mm 5 mps 769 mmHg 88%
    20:00 +12°C° 0 mm 4 mps 769 mmHg 91%
    21:00 +11°C° 0 mm 4 mps 769 mmHg 95%
    22:00 +11°C° 0 mm 4 mps 769 mmHg 95%
    23:00 +11°C° 0 mm 4 mps 769 mmHg 96%

    28 June, Friday

    Time Temperature Precipitation Wind Pressure Humidity
    00:00 +11°C° 0 mm 3 mps 769 mmHg 96%
    01:00 +11°C° 0 mm 3 mps 768 mmHg 96%
    02:00 +11°C° 0 mm 3 mps 768 mmHg 96%
    03:00 +11°C° 0 mm 3 mps 768 mmHg 96%
    04:00 +11°C° 0 mm 3 mps 768 mmHg 93%
    05:00 +12°C° 0 mm 3 mps 768 mmHg 91%
    06:00 +13°C° 0 mm 4 mps 768 mmHg 88%
    07:00 +14°C° 0 mm 4 mps 768 mmHg 85%
    08:00 +15°C° 0 mm 4 mps 768 mmHg 81%
    09:00 +16°C° 0 mm 5 mps 768 mmHg 78%
    10:00 +17°C° 0 mm 5 mps 767 mmHg 76%
    11:00 +17°C° 0 mm 5 mps 767 mmHg 74%
    12:00 +19°C° 0 mm 5 mps 767 mmHg 72%
    13:00 +19°C° 0 mm 5 mps 767 mmHg 72%
    14:00 +19°C° 0 mm 5 mps 766 mmHg 72%
    15:00 +19°C° 0 mm 5 mps 766 mmHg 72%
    16:00 +17°C° 0 mm 5 mps 766 mmHg 75%
    17:00 +16°C° 0 mm 5 mps 766 mmHg 77%
    18:00 +17°C° 0 mm 4 mps 765 mmHg 79%
    19:00 +15°C° 0 mm 4 mps 765 mmHg 84%
    20:00 +13°C° 0 mm 4 mps 765 mmHg 88%
    21:00 +12°C° 0 mm 4 mps 765 mmHg 93%
    22:00 +12°C° 0 mm 4 mps 765 mmHg 92%
    23:00 +12°C° 0 mm 4 mps 764 mmHg 91%

    29 June, Saturday

    Time Temperature Precipitation Wind Pressure Humidity
    00:00 +12°C° 0 mm 4 mps 764 mmHg 91%
    01:00 +12°C° 0 mm 4 mps 763 mmHg 91%
    02:00 +12°C° 0 mm 3 mps 763 mmHg 92%
    03:00 +12°C° 0 mm 3 mps 763 mmHg 93%
    04:00 +13°C° 0 mm 3 mps 762 mmHg 91%
    05:00 +14°C° 0 mm 3 mps 762 mmHg 90%
    06:00 +16°C° 0 mm 3 mps 762 mmHg 88%
    07:00 +18°C° 0 mm 4 mps 762 mmHg 84%
    08:00 +19°C° 0 mm 4 mps 761 mmHg 80%
    09:00 +21°C° 0 mm 4 mps 761 mmHg 76%
    10:00 +22°C° 0 mm 4 mps 761 mmHg 73%
    11:00 +22°C° 0 mm 5 mps 760 mmHg 70%
    12:00 +23°C° 0 mm 5 mps 760 mmHg 68%
    13:00 +23°C° 0 mm 5 mps 759 mmHg 67%
    14:00 +25°C° 0 mm 5 mps 759 mmHg 66%
    15:00 +25°C° 0 mm 5 mps 758 mmHg 66%
    16:00 +23°C° 0 mm 4 mps 758 mmHg 69%
    17:00 +23°C° 0 mm 4 mps 757 mmHg 72%
    18:00 +22°C° 0 mm 4 mps 757 mmHg 75%
    19:00 +21°C° 0 mm 3 mps 756 mmHg 77%
    20:00 +20°C° 0 mm 3 mps 756 mmHg 78%
    21:00 +18°C° 0 mm 3 mps 756 mmHg 80%
    22:00 +18°C° 0 mm 3 mps 755 mmHg 81%
    23:00 +18°C° 0 mm 3 mps 755 mmHg 83%

    30 June, Sunday

    Time Temperature Precipitation Wind Pressure Humidity
    00:00 +18°C° 0 mm 3 mps 755 mmHg 84%
    01:00 +18°C° 0 mm 4 mps 755 mmHg 85%
    02:00 +18°C° 0 mm 4 mps 754 mmHg 87%
    03:00 +17°C° 0 mm 5 mps 754 mmHg 88%
    04:00 +17°C° 0 mm 5 mps 755 mmHg 86%
    05:00 +16°C° 0 mm 6 mps 755 mmHg 84%
    06:00 +15°C° 0 mm 6 mps 755 mmHg 81%
    07:00 +16°C° 0 mm 6 mps 756 mmHg 79%
    08:00 +17°C° 0 mm 6 mps 756 mmHg 77%
    09:00 +19°C° 0 mm 6 mps 756 mmHg 75%
    10:00 +20°C° 0 mm 6 mps 757 mmHg 73%
    11:00 +21°C° 0 mm 6 mps 757 mmHg 71%
    12:00 +22°C° 0 mm 6 mps 757 mmHg 69%
    13:00 +22°C° 0 mm 6 mps 757 mmHg 69%
    14:00 +22°C° 0 mm 7 mps 757 mmHg 69%
    15:00 +22°C° 0 mm 7 mps 757 mmHg 69%
    16:00 +21°C° 0 mm 6 mps 757 mmHg 71%
    17:00 +21°C° 0 mm 6 mps 757 mmHg 74%
    18:00 +21°C° 0 mm 5 mps 757 mmHg 76%
    19:00 +20°C° 0 mm 5 mps 757 mmHg 80%
    20:00 +17°C° 0 mm 5 mps 757 mmHg 84%
    21:00 +16°C° 0 mm 5 mps 758 mmHg 88%
    22:00 +15°C° 0 mm 5 mps 758 mmHg 89%
    23:00 +15°C° 0 mm 4 mps 758 mmHg 90%
    Show more